Regional Weather Roundup
Issued by NWS Midland/Odessa, TX

Skip options and go directly to product.
Home | Oldest Version | Previous Version | Current Version | All | Text Only | Save Text | Print | Product List | Glossary On

Skip product version selection by date and time.   
334
ASUS44 KMAF 240301
RWRMAF
MIDLAND AREA WEATHER ROUNDUP
NATIONAL WEATHER SERVICE MIDLAND TX
1000 PM CDT SAT JUL 23 2016

...IN SOUTHWEST TEXAS AND SOUTHEAST NEW MEXICO...

CITY           SKY/WX    TMP DP  RH WIND       PRES   REMARKS
ALPINE         CLEAR     86  52  30 SE7       30.08R
ANDREWS        FAIR      87  54  32 SE7       29.96S
ARTESIA        CLEAR     88  39  18 SE7       29.93R
BIG SPRING     CLEAR     86  58  37 SE6       29.95R
CARLSBAD       PTCLDY    90  44  20 SE7       29.90R
DRYDEN           N/A     92  59  33 E10       29.88R
FORT STOCKTON  CLEAR     90  57  32 SE13      29.92R
GUAD PASS      CLEAR     85  41  21 E21       30.10R
HOBBS          CLEAR     86  50  28 SE9       29.99R HAZE
MARFA          CLEAR     82  48  30 SE9       30.06R
MIDLAND AIRPK  CLEAR     92  54  27 SE9       29.95R
MIDLAND INTL   CLEAR     91  56  30 SE12      29.94R
ODESSA         CLEAR     92  55  28 SE9       29.95R
PECOS          CLEAR     94  55  26 E15       29.88R
PRESIDIO       FAIR      96  48  19 SE8       29.87R
SEMINOLE       CLEAR     87  51  28 SE5       29.98R
SNYDER           N/A     88  61  40 E7        29.94R
WINK           CLEAR     92  55  28 SE14G22   29.89R
$$
...OTHER STATIONS IN TEXAS...

CITY           SKY/WX    TMP DP  RH WIND       PRES   REMARKS
ABILENE        CLEAR     88  60  38 SE10      29.92R
AMARILLO       CLEAR     87  52  29 S14       29.99R
AUSTIN         PTCLDY    89  73  59 S12       29.88R
BROWNSVILLE    PTCLDY    84  77  79 SE12      29.91R
CORPUS CHRISTI CLEAR     84  77  79 SE13      29.89R
DALLAS FTW     CLEAR     91  69  48 SE9       29.89R
DEL RIO        CLEAR     95  58  28 E9        29.81R
EL PASO        PTCLDY    95  40  14 S5        29.91S
HOUSTON INT    PTCLDY    87  74  64 S6        29.92R
LUBBOCK        PTCLDY    88  56  33 S9        29.97S
SAN ANGELO     MOCLDY    89  60  37 SE8       29.89R
SAN ANTONIO    PTCLDY    89  70  53 SE15G26   29.89R
WACO           CLEAR     88  68  51 SE7       29.90R
WICHITA FALLS  NOT AVBL
$$
...OTHER LOCATIONS IN NEW MEXICO...

CITY           SKY/WX    TMP DP  RH WIND       PRES   REMARKS
ALAMAGORDO     CLOUDY    88  37  16 SE8       29.94R
ALBUQUERQUE    CLOUDY    90  44  20 SW20G28   30.04R
CANNON AFB     CLEAR     81  48  31 SE7       30.02R
CLOVIS         CLEAR     82  48  30 SE8       30.02R
HOLLOMAN AFB   NOT AVBL
ROSWELL        CLEAR     87  40  19 SE7       29.93R
RUIDOSO          N/A     75  39  27 SE8       30.24R
SANTA FE       TSTM      77  51  40 S18       30.18R
TRUTH OR CONSE PTCLDY    88  43  20 NW25G37   30.01S
TUCUMCARI      CLEAR     86  40  19 S9        29.96R
$$

USA.gov is the U.S. government's official web portal to all federal, state and local government web resources and services.